Flight Track Log - Related Links

Times and Time Zones

All times are in EDT time to prevent confusion due to time zone crossing. See the AFR345 flight status page for this flight to view local times or setup timezone preferences in your user account.

Time Position Orientation Groundspeed Altitude Reporting Facility
EDT Latitude Longitude Course Direction KTS MPH feet Rate Location/Type
Tue 04:58:00 PM 45.5839 -73.4811 35° Northeast  Level Estimated
Tue 04:59:00 PM 45.6519 -73.3317 19° North  Level Estimated
Tue 05:00:00 PM 45.7197 -73.1820 17° North  Level Estimated
Tue 05:04:00 PM 45.7090 -73.6039 19° North  Level FlightAware Approximate
Tue 05:05:00 PM 45.8267 -73.5450 19° North  Level FlightAware Approximate
Tue 05:06:00 PM 45.9458 -73.4923 17° North  Level FlightAware Approximate
Tue 05:06:33 PM 45.4500 -73.7167 21° North 80 92 600  Level Montreal Center
Tue 05:07:33 PM 45.4167 -73.7667 226° Southwest 170 196 2,200 1,200 Climbing Montreal Center
Tue 05:08:00 PM 45.7053 -73.6057 19° North  Level FlightAware Approximate
Tue 05:08:33 PM 45.3667 -73.8500 230° Southwest 240 276 3,000  Level Montreal Center
Tue 05:09:00 PM 45.8230 -73.5468 19° North  Level FlightAware Approximate
Tue 05:09:33 PM 45.3500 -73.9333 254° West 270 311 5,400  Level Montreal Center
Tue 05:10:00 PM 45.9421 -73.4939 17° North  Level FlightAware Approximate
Tue 05:10:33 PM 45.4167 -74.0167 319° Northwest 300 345 7,000  Level Montreal Center
Tue 05:11:00 PM 46.0606 -73.4427 21° North  Level FlightAware Approximate
Tue 05:11:33 PM 45.5000 -74.0833 331° Northwest 300 345 7,400  Level Montreal Center
Tue 05:12:00 PM 46.1772 -73.3791 21° North  Level FlightAware Approximate
Tue 05:12:33 PM 45.5833 -74.1000 352° North 320 368 9,800  Level Montreal Center
Tue 05:18:47 PM 46.1450 -73.4480 352° North 480 552 24,900 2,406 Climbing FlightAware ADS-B
Tue 05:19:32 PM 46.2170 -73.3440 45° Northeast 493 567 26,600 2,118 Climbing FlightAware ADS-B
Tue 05:20:12 PM 46.2650 -73.2280 59° Northeast 504 580 27,900 2,025 Climbing FlightAware ADS-B
Tue 05:20:52 PM 46.3090 -73.1080 62° Northeast 509 586 29,300 2,329 Climbing FlightAware ADS-B
Tue 05:21:37 PM 46.3560 -72.9800 62° Northeast 500 575 31,200 2,259 Climbing FlightAware ADS-B
Tue 05:22:17 PM 46.4010 -72.8600 61° Northeast 500 575 32,500 1,800 Climbing FlightAware ADS-B
Tue 05:22:57 PM 46.4450 -72.7420 62° Northeast 499 574 33,600 1,553 Climbing FlightAware ADS-B
Tue 05:23:42 PM 46.4950 -72.6060 62° Northeast 499 574 34,700 988 Climbing FlightAware ADS-B
Tue 05:24:22 PM 46.5380 -72.4890 62° Northeast 499 574 35,000 180 Climbing FlightAware ADS-B
Tue 05:25:22 PM 46.6030 -72.3130 62° Northeast 498 573 35,000  Level FlightAware ADS-B
Tue 05:26:02 PM 46.6460 -72.1950 62° Northeast 499 574 35,000  Level FlightAware ADS-B
Tue 05:26:42 PM 46.6890 -72.0760 62° Northeast 500 575 35,000  Level FlightAware ADS-B
Tue 05:27:27 PM 46.7360 -71.9440 63° Northeast 499 574 35,000  Level FlightAware ADS-B
Tue 05:28:07 PM 46.7790 -71.8260 62° Northeast 500 575 35,000  Level FlightAware ADS-B
Tue 05:29:02 PM 46.8380 -71.6590 63° Northeast 501 577 35,000  Level FlightAware ADS-B
Tue 05:29:47 PM 46.8860 -71.5250 62° Northeast 501 577 35,000  Level FlightAware ADS-B
Tue 05:30:27 PM 46.9280 -71.4050 63° Northeast 502 578 35,000  Level FlightAware ADS-B
Tue 05:31:12 PM 46.9760 -71.2690 63° Northeast 502 578 35,000  Level FlightAware ADS-B
Tue 05:31:52 PM 47.0180 -71.1480 63° Northeast 500 575 35,000  Level FlightAware ADS-B
Tue 05:32:32 PM 47.0600 -71.0290 63° Northeast 500 575 35,000  Level FlightAware ADS-B
Tue 05:33:17 PM 47.1070 -70.8920 63° Northeast 501 577 35,000  Level FlightAware ADS-B
Tue 05:33:57 PM 47.1480 -70.7720 63° Northeast 501 577 35,000  Level FlightAware ADS-B
Tue 05:34:42 PM 47.1950 -70.6350 63° Northeast 503 579 35,000  Level FlightAware ADS-B
Tue 05:35:22 PM 47.2360 -70.5150 63° Northeast 505 581 35,000  Level FlightAware ADS-B
Tue 05:36:02 PM 47.2790 -70.3900 63° Northeast 505 581 35,000  Level FlightAware ADS-B
Tue 05:36:47 PM 47.3250 -70.2530 64° Northeast 507 583 35,000  Level FlightAware ADS-B
Tue 05:37:27 PM 47.3670 -70.1290 63° Northeast 508 585 35,000  Level FlightAware ADS-B
Tue 05:38:07 PM 47.4080 -70.0050 64° Northeast 510 587 35,000  Level FlightAware ADS-B
Tue 05:38:52 PM 47.4550 -69.8650 64° Northeast 512 589 35,000  Level FlightAware ADS-B
Tue 05:39:32 PM 47.4960 -69.7400 64° Northeast 513 590 35,000  Level FlightAware ADS-B
Tue 05:40:17 PM 47.5430 -69.5980 64° Northeast 513 590 35,000  Level FlightAware ADS-B
Tue 05:40:57 PM 47.5820 -69.4790 64° Northeast 514 592 35,000  Level FlightAware ADS-B
Tue 05:41:37 PM 47.6250 -69.3470 64° Northeast 516 594 35,000  Level FlightAware ADS-B
Tue 05:42:22 PM 47.6720 -69.2020 64° Northeast 517 595 35,000  Level FlightAware ADS-B
Tue 05:43:02 PM 47.7110 -69.0810 64° Northeast 519 597 35,000  Level FlightAware ADS-B
Tue 05:43:47 PM 47.7530 -68.9260 68° East 524 603 35,000  Level FlightAware ADS-B
Tue 05:44:42 PM 47.7910 -68.7500 72° East 527 606 35,000  Level FlightAware ADS-B
Tue 05:45:22 PM 47.8160 -68.6320 72° East 527 606 35,000  Level FlightAware ADS-B
Tue 05:46:02 PM 47.8420 -68.5150 72° East 527 606 35,000  Level FlightAware ADS-B
Tue 05:46:42 PM 47.8670 -68.3970 72° East 527 606 35,000  Level FlightAware ADS-B
Tue 05:47:32 PM 47.8990 -68.2500 72° East 527 606 35,000  Level FlightAware ADS-B
Tue 05:48:12 PM 47.9250 -68.1330 72° East 527 606 35,000  Level FlightAware ADS-B
Tue 05:48:52 PM 47.9510 -68.0150 72° East 527 606 35,000  Level FlightAware ADS-B
Tue 05:49:32 PM 47.9760 -67.8970 72° East 527 606 35,000  Level FlightAware ADS-B
Tue 05:50:12 PM 48.0020 -67.7790 72° East 527 606 35,000  Level FlightAware ADS-B
Tue 05:50:52 PM 48.0270 -67.6620 72° East 527 606 35,000  Level FlightAware ADS-B
Tue 05:51:42 PM 48.0590 -67.5140 72° East 527 606 35,000  Level FlightAware ADS-B
Tue 05:52:22 PM 48.0850 -67.3960 72° East 527 606 35,000  Level FlightAware ADS-B
Tue 05:53:02 PM 48.1110 -67.2780 72° East 527 606 35,000  Level FlightAware ADS-B
Tue 05:53:52 PM 48.1430 -67.1300 72° East 527 606 35,000  Level FlightAware ADS-B
Tue 05:54:10 PM 48.1667 -66.7500 72° East 540 621 35,000  Level Gander Center
Tue 05:54:49 PM 48.2000 -66.6000 72° East 520 598 35,000  Level Moncton Center
Tue 05:55:49 PM 48.2333 -66.3833 77° East 540 621 35,000  Level Moncton Center
Tue 05:56:49 PM 48.2667 -66.1500 78° East 540 621 35,000  Level Moncton Center
Tue 05:57:49 PM 48.3167 -65.9333 71° East 530 610 35,000  Level Moncton Center
Tue 05:58:49 PM 48.3667 -65.7333 69° East 540 621 35,000  Level Moncton Center
Tue 05:59:49 PM 48.4000 -65.5333 76° East 540 621 35,000  Level Moncton Center
Tue 06:00:49 PM 48.4333 -65.2833 79° East 540 621 35,000  Level Moncton Center
Tue 06:01:49 PM 48.4667 -65.0833 76° East 540 621 35,000  Level Moncton Center
Tue 06:02:49 PM 48.5000 -64.8500 78° East 540 621 35,000  Level Moncton Center
Tue 06:03:49 PM 48.5333 -64.6167 78° East 540 621 35,000  Level Moncton Center
Tue 06:04:49 PM 48.5667 -64.4167 76° East 530 610 35,000  Level Moncton Center
Tue 06:05:49 PM 48.6167 -64.2000 71° East 540 621 35,000 200 Level Moncton Center
Tue 06:06:49 PM 48.6500 -63.9667 78° East 540 621 35,400 850 Climbing Moncton Center
Tue 06:07:49 PM 48.6833 -63.7667 76° East 540 621 36,700 903 Climbing Moncton Center
Tue 06:08:42 PM 48.7167 -63.5667 76° East 540 621 37,100 150 Climbing Gander Center
Tue 06:09:49 PM 48.7500 -63.3000 79° East 540 621 37,000 -47 Descending Moncton Center
Tue 06:10:49 PM 48.7833 -63.0833 77° East 550 633 37,000  Level Moncton Center
Tue 06:11:49 PM 48.8333 -62.8500 72° East 540 621 37,000  Level Moncton Center
Tue 06:12:49 PM 48.8667 -62.6333 77° East 540 621 37,000  Level Moncton Center
Tue 06:13:42 PM 48.8833 -62.4333 83° East 540 621 37,000  Level Gander Center
Tue 06:14:49 PM 48.9167 -62.2000 78° East 540 621 37,000  Level Moncton Center
Tue 06:15:42 PM 48.9500 -61.9667 78° East 540 621 37,000  Level Gander Center
Tue 06:16:42 PM 48.9833 -61.7667 76° East 550 633 37,000  Level Gander Center
Tue 06:17:49 PM 49.0167 -61.5167 78° East 550 633 37,000  Level Moncton Center
Tue 06:18:42 PM 49.0333 -61.3000 83° East 550 633 37,000  Level Gander Center
Tue 06:19:49 PM 49.0667 -61.0500 78° East 550 633 37,000  Level Moncton Center
Tue 06:20:49 PM 49.1000 -60.8167 78° East 550 633 37,000 16 Level Moncton Center
Tue 06:26:02 PM 49.2640 -59.6450 78° East 549 632 37,100  Climbing FlightAware ADS-B
Tue 06:26:47 PM 49.2850 -59.4710 79° East 549 632 37,000  Descending FlightAware ADS-B
Tue 06:27:27 PM 49.3030 -59.3140 80° East 550 633 37,100  Climbing FlightAware ADS-B
Tue 06:28:07 PM 49.3200 -59.1690 80° East 549 632 37,000  Descending FlightAware ADS-B
Tue 06:28:52 PM 49.3400 -58.9930 80° East 549 632 37,100  Climbing FlightAware ADS-B
Tue 06:29:32 PM 49.3570 -58.8420 80° East 549 632 37,000 -71 Descending FlightAware ADS-B
Tue 06:30:17 PM 49.3760 -58.6670 80° East 549 632 37,000  Level FlightAware ADS-B
Tue 06:30:57 PM 49.3990 -58.5140 77° East 549 632 37,000 75 Level FlightAware ADS-B
Tue 06:31:37 PM 49.4290 -58.3760 71° East 549 632 37,100 71 Climbing FlightAware ADS-B
Tue 06:32:22 PM 49.4690 -58.2000 71° East 549 632 37,100 -71 Level FlightAware ADS-B
Tue 06:33:02 PM 49.5020 -58.0530 71° East 550 633 37,000 -71 Descending FlightAware ADS-B
Tue 06:33:47 PM 49.5390 -57.8890 71° East 549 632 37,000 71 Level FlightAware ADS-B
Tue 06:34:27 PM 49.5720 -57.7410 71° East 549 632 37,100  Climbing FlightAware ADS-B
Tue 06:35:12 PM 49.6080 -57.5790 71° East 549 632 37,000 -71 Descending FlightAware ADS-B
Tue 06:35:52 PM 49.6400 -57.4350 71° East 549 632 37,000  Level FlightAware ADS-B
Tue 06:36:32 PM 49.6730 -57.2880 71° East 548 631 37,000  Level FlightAware ADS-B
Tue 06:37:17 PM 49.7110 -57.1100 72° East 549 632 37,000  Level FlightAware ADS-B
Tue 06:37:57 PM 49.7440 -56.9620 71° East 549 632 37,000  Level FlightAware ADS-B
Tue 06:38:37 PM 49.7760 -56.8130 72° East 550 633 37,000  Level FlightAware ADS-B
Tue 06:39:22 PM 49.8120 -56.6450 72° East 550 633 37,000  Level FlightAware ADS-B
Tue 06:40:02 PM 49.8430 -56.4970 72° East 553 636 37,000 71 Level FlightAware ADS-B
Tue 06:40:47 PM 49.8780 -56.3280 72° East 552 635 37,100  Climbing FlightAware ADS-B
Tue 06:41:27 PM 49.9100 -56.1770 72° East 554 638 37,000 -92 Descending FlightAware ADS-B
Tue 06:41:52 PM 49.9290 -56.0830 73° East 554 638 37,000  Level FlightAware ADS-B
Tue 06:42:37 PM 49.9640 -55.9120 72° East 555 639 37,000  Level FlightAware ADS-B
Tue 06:43:17 PM 49.9950 -55.7610 72° East 555 639 37,000  Level FlightAware ADS-B
Tue 06:44:02 PM 50.0300 -55.5890 72° East 556 640 37,000  Level FlightAware ADS-B
Tue 06:44:42 PM 50.0600 -55.4390 73° East 556 640 37,000  Level FlightAware ADS-B
Tue 06:45:27 PM 50.0950 -55.2650 73° East 554 638 37,000  Level FlightAware ADS-B
Tue 06:46:07 PM 50.1250 -55.1130 73° East 554 638 37,000  Level FlightAware ADS-B
Tue 06:46:47 PM 50.1530 -54.9670 73° East 553 636 37,000  Level FlightAware ADS-B
Tue 06:47:32 PM 50.1880 -54.7910 73° East 552 635 37,000  Level FlightAware ADS-B
Tue 06:48:12 PM 50.2170 -54.6380 73° East 550 633 37,000  Level FlightAware ADS-B
Tue 06:48:52 PM 50.2460 -54.4860 73° East 548 631 37,000  Level FlightAware ADS-B
Tue 06:49:37 PM 50.2790 -54.3160 73° East 548 631 37,000  Level FlightAware ADS-B
Tue 06:50:17 PM 50.3070 -54.1640 74° East 547 629 37,000  Level FlightAware ADS-B
Tue 06:51:02 PM 50.3380 -53.9950 74° East 547 629 37,000  Level FlightAware ADS-B
Tue 06:51:42 PM 50.3670 -53.8420 73° East 547 629 37,000  Level FlightAware ADS-B
Tue 06:52:22 PM 50.3930 -53.6980 74° East 546 628 37,000  Level FlightAware ADS-B
Tue 06:53:07 PM 50.4250 -53.5220 74° East 544 626 37,000  Level FlightAware ADS-B
Tue 06:53:47 PM 50.4500 -53.3840 74° East 544 626 37,000  Level FlightAware ADS-B
Tue 06:54:27 PM 50.4780 -53.2280 74° East 544 626 37,000  Level FlightAware ADS-B
Tue 06:55:02 PM 50.5010 -53.0930 75° East 543 625 37,000  Level FlightAware ADS-B
Tue 06:55:47 PM 50.5280 -52.9450 74° East 543 625 37,000  Level FlightAware ADS-B
Tue 06:56:32 PM 50.5620 -52.7470 75° East 37,000  Level FlightAware ADS-B
Tue 06:57:17 PM 50.5890 -52.5880 75° East 538 619 37,000  Level FlightAware ADS-B
Tue 06:57:52 PM 50.6110 -52.4670 74° East 538 619 37,000  Level FlightAware ADS-B
Tue 06:58:42 PM 50.6400 -52.3070 74° East 538 619 37,000  Level FlightAware ADS-B
Tue 06:59:22 PM 50.6630 -52.1790 74° East 538 619 37,000  Level FlightAware ADS-B
Tue 07:00:02 PM 50.6860 -52.0500 74° East 538 619 37,000  Level FlightAware ADS-B
Tue 07:00:42 PM 50.7100 -51.9220 73° East 538 619 37,000  Level FlightAware ADS-B
Tue 07:01:32 PM 50.7390 -51.7610 74° East 538 619 37,000  Level FlightAware ADS-B
Tue 07:02:12 PM 50.7620 -51.6330 74° East 538 619 37,000  Level FlightAware ADS-B
Tue 07:02:52 PM 50.7860 -51.5040 74° East 538 619 37,000  Level FlightAware ADS-B
Tue 07:03:32 PM 50.8090 -51.3750 74° East 538 619 37,000  Level FlightAware ADS-B
Tue 07:04:12 PM 50.8320 -51.2460 74° East 538 619 37,000  Level FlightAware ADS-B
Tue 07:04:52 PM 50.8550 -51.1180 74° East 538 619 37,000  Level FlightAware ADS-B
Tue 07:05:42 PM 50.8850 -50.9560 74° East 538 619 37,000  Level FlightAware ADS-B
Tue 07:06:22 PM 50.9080 -50.8280 74° East 538 619 37,000  Level FlightAware ADS-B
Tue 07:07:02 PM 50.9310 -50.6980 74° East 538 619 37,000  Level FlightAware ADS-B
Tue 07:07:49 PM 50.9667 -50.1167 74° East 530 610 37,000  Level Moncton Center
Tue 07:08:49 PM 50.9833 -49.9000 83° East 530 610 37,000  Level Moncton Center
Tue 07:09:49 PM 51.0167 -49.6667 77° East 540 621 37,000  Level Moncton Center
Tue 07:10:10 PM 51.0167 -49.5833 90° East 530 610 37,000  Level Gander Center
Tue 07:11:10 PM 51.0667 -49.3500 71° East 530 610 37,000  Level Gander Center
Tue 07:12:10 PM 51.1000 -49.1500 75° East 540 621 37,000  Level Gander Center
Tue 07:14:00 PM 51.1392 -48.8712 77° East  Level FlightAware Approximate
Tue 07:21:00 PM 51.3388 -47.3623 77° East  Level FlightAware Approximate
Tue 07:22:00 PM 51.3657 -47.1456 79° East  Level FlightAware Approximate
Tue 07:23:00 PM 51.3922 -46.9288 79° East  Level FlightAware Approximate
Tue 07:24:00 PM 51.4183 -46.7116 79° East  Level FlightAware Approximate
Tue 07:25:00 PM 51.4440 -46.4943 79° East  Level FlightAware Approximate
Tue 07:26:00 PM 51.4692 -46.2765 80° East  Level FlightAware Approximate
Tue 07:27:00 PM 51.4929 -46.0583 80° East  Level FlightAware Approximate
Tue 07:28:00 PM 51.5162 -45.8399 80° East  Level FlightAware Approximate
Tue 07:29:00 PM 51.5391 -45.6213 80° East  Level FlightAware Approximate
Tue 07:30:00 PM 51.5615 -45.4024 81° East  Level FlightAware Approximate
Tue 07:31:00 PM 51.5836 -45.1833 81° East  Level FlightAware Approximate
Tue 07:32:00 PM 51.6052 -44.9640 81° East  Level FlightAware Approximate
Tue 07:33:00 PM 51.6265 -44.7445 81° East  Level FlightAware Approximate
Tue 07:34:00 PM 51.6473 -44.5248 81° East  Level FlightAware Approximate
Tue 07:35:00 PM 51.6677 -44.3049 81° East  Level FlightAware Approximate
Tue 07:36:00 PM 51.6877 -44.0848 82° East  Level FlightAware Approximate
Tue 07:37:00 PM 51.7073 -43.8645 82° East  Level FlightAware Approximate
Tue 07:38:00 PM 51.7265 -43.6441 82° East  Level FlightAware Approximate
Tue 07:39:00 PM 51.7453 -43.4234 82° East  Level FlightAware Approximate
Tue 07:40:00 PM 51.7636 -43.2025 82° East  Level FlightAware Approximate
Tue 07:41:00 PM 51.7816 -42.9815 82° East  Level FlightAware Approximate
Tue 07:42:00 PM 51.7991 -42.7603 83° East  Level FlightAware Approximate
Tue 07:43:00 PM 51.8162 -42.5390 83° East  Level FlightAware Approximate
Tue 07:44:00 PM 51.8344 -42.3177 82° East  Level FlightAware Approximate
Tue 07:45:00 PM 51.8523 -42.0964 82° East  Level FlightAware Approximate
Tue 07:46:00 PM 51.8697 -41.8748 83° East  Level FlightAware Approximate
Tue 07:47:00 PM 51.8867 -41.6530 83° East  Level FlightAware Approximate
Tue 07:48:00 PM 51.9033 -41.4311 83° East  Level FlightAware Approximate
Tue 07:49:00 PM 51.9195 -41.2091 83° East  Level FlightAware Approximate
Tue 07:50:00 PM 51.9352 -40.9869 83° East  Level FlightAware Approximate
Tue 07:51:00 PM 51.9506 -40.7645 84° East  Level FlightAware Approximate
Tue 07:52:00 PM 51.9655 -40.5420 84° East  Level FlightAware Approximate
Tue 07:53:00 PM 51.9800 -40.3193 84° East  Level FlightAware Approximate
Tue 07:54:00 PM 51.9940 -40.0965 84° East  Level FlightAware Approximate
Tue 07:55:00 PM 52.0053 -39.8732 86° East  Level FlightAware Approximate
Tue 07:56:00 PM 52.0144 -39.6496 86° East  Level FlightAware Approximate
Tue 07:57:00 PM 52.0230 -39.4259 86° East  Level FlightAware Approximate
Tue 07:58:00 PM 52.0312 -39.2021 87° East  Level FlightAware Approximate
Tue 07:59:00 PM 52.0389 -38.9782 87° East  Level FlightAware Approximate
Tue 08:00:00 PM 52.0462 -38.7543 87° East  Level FlightAware Approximate
Tue 08:01:00 PM 52.0532 -38.5303 87° East  Level FlightAware Approximate
Tue 08:02:00 PM 52.0597 -38.3062 87° East  Level FlightAware Approximate
Tue 08:03:00 PM 52.0657 -38.0820 87° East  Level FlightAware Approximate
Tue 08:04:00 PM 52.0714 -37.8578 88° East  Level FlightAware Approximate
Tue 08:05:00 PM 52.0766 -37.6336 88° East  Level FlightAware Approximate
Tue 08:06:00 PM 52.0814 -37.4093 88° East  Level FlightAware Approximate
Tue 08:07:00 PM 52.0857 -37.1849 88° East  Level FlightAware Approximate
Tue 08:08:00 PM 52.0897 -36.9605 88° East  Level FlightAware Approximate
Tue 08:09:00 PM 52.0932 -36.7361 88° East  Level FlightAware Approximate
Tue 08:10:00 PM 52.0963 -36.5116 89° East  Level FlightAware Approximate
Tue 08:11:00 PM 52.0989 -36.2871 89° East  Level FlightAware Approximate
Tue 08:12:00 PM 52.1012 -36.0626 89° East  Level FlightAware Approximate
Tue 08:13:00 PM 52.1030 -35.8381 89° East  Level FlightAware Approximate
Tue 08:14:00 PM 52.1043 -35.6135 89° East  Level FlightAware Approximate
Tue 08:15:00 PM 52.1053 -35.3889 90° East  Level FlightAware Approximate
Tue 08:16:00 PM 52.1058 -35.1643 90° East  Level FlightAware Approximate
Tue 08:17:00 PM 52.1059 -34.9398 90° East  Level FlightAware Approximate
Tue 08:18:00 PM 52.1056 -34.7152 90° East  Level FlightAware Approximate
Tue 08:19:00 PM 52.1048 -34.4906 90° East  Level FlightAware Approximate
Tue 08:20:00 PM 52.1037 -34.2661 90° East  Level FlightAware Approximate
Tue 08:21:00 PM 52.1021 -34.0415 91° East  Level FlightAware Approximate
Tue 08:22:00 PM 52.1000 -33.8170 91° East  Level FlightAware Approximate
Tue 08:23:00 PM 52.0976 -33.5925 91° East  Level FlightAware Approximate
Tue 08:24:00 PM 52.0947 -33.3680 91° East  Level FlightAware Approximate
Tue 08:25:00 PM 52.0914 -33.1435 91° East  Level FlightAware Approximate
Tue 08:26:00 PM 52.0876 -32.9191 91° East  Level FlightAware Approximate
Tue 08:27:00 PM 52.0835 -32.6948 92° East  Level FlightAware Approximate
Tue 08:28:00 PM 52.0789 -32.4704 92° East  Level FlightAware Approximate
Tue 08:29:00 PM 52.0738 -32.2462 92° East  Level FlightAware Approximate
Tue 08:30:00 PM 52.0684 -32.0219 92° East  Level FlightAware Approximate
Tue 08:31:00 PM 52.0625 -31.7978 92° East  Level FlightAware Approximate
Tue 08:32:00 PM 52.0562 -31.5736 93° East  Level FlightAware Approximate
Tue 08:33:00 PM 52.0495 -31.3496 93° East  Level FlightAware Approximate
Tue 08:34:00 PM 52.0424 -31.1256 93° East  Level FlightAware Approximate
Tue 08:35:00 PM 52.0348 -30.9017 93° East  Level FlightAware Approximate
Tue 08:36:00 PM 52.0268 -30.6779 93° East  Level FlightAware Approximate
Tue 08:37:00 PM 52.0184 -30.4541 93° East  Level FlightAware Approximate
Tue 08:38:00 PM 52.0096 -30.2305 94° East  Level FlightAware Approximate
Tue 08:39:00 PM 52.0003 -30.0069 94° East  Level FlightAware Approximate
Tue 08:40:00 PM 51.9875 -29.7839 95° East  Level FlightAware Approximate
Tue 08:41:00 PM 51.9742 -29.5609 95° East  Level FlightAware Approximate
Tue 08:42:00 PM 51.9605 -29.3382 96° East  Level FlightAware Approximate
Tue 08:43:00 PM 51.9463 -29.1155 96° East  Level FlightAware Approximate
Tue 08:44:00 PM 51.9317 -28.8931 96° East  Level FlightAware Approximate
Tue 08:45:00 PM 51.9168 -28.6707 96° East  Level FlightAware Approximate
Tue 08:46:00 PM 51.9013 -28.4485 96° East  Level FlightAware Approximate
Tue 08:47:00 PM 51.8855 -28.2265 97° East  Level FlightAware Approximate
Tue 08:48:00 PM 51.8693 -28.0046 97° East  Level FlightAware Approximate
Tue 08:49:00 PM 51.8526 -27.7829 97° East  Level FlightAware Approximate
Tue 08:50:00 PM 51.8355 -27.5613 97° East  Level FlightAware Approximate
Tue 08:51:00 PM 51.8180 -27.3400 97° East  Level FlightAware Approximate
Tue 08:52:00 PM 51.8001 -27.1187 97° East  Level FlightAware Approximate
Tue 08:53:00 PM 51.7818 -26.8977 98° East  Level FlightAware Approximate
Tue 08:54:00 PM 51.7631 -26.6769 98° East  Level FlightAware Approximate
Tue 08:55:00 PM 51.7439 -26.4562 98° East  Level FlightAware Approximate
Tue 08:56:00 PM 51.7244 -26.2357 98° East  Level FlightAware Approximate
Tue 08:57:00 PM 51.7044 -26.0154 98° East  Level FlightAware Approximate
Tue 08:58:00 PM 51.6840 -25.7953 98° East  Level FlightAware Approximate
Tue 08:59:00 PM 51.6632 -25.5755 99° East  Level FlightAware Approximate
Tue 09:00:00 PM 51.6420 -25.3558 99° East  Level FlightAware Approximate
Tue 09:01:00 PM 51.6204 -25.1363 99° East  Level FlightAware Approximate
Tue 09:02:00 PM 51.5983 -24.9170 99° East  Level FlightAware Approximate
Tue 09:03:00 PM 51.5756 -24.6981 99° East  Level FlightAware Approximate
Tue 09:04:00 PM 51.5524 -24.4793 100° East  Level FlightAware Approximate
Tue 09:05:00 PM 51.5288 -24.2608 100° East  Level FlightAware Approximate
Tue 09:06:00 PM 51.5048 -24.0425 100° East  Level FlightAware Approximate
Tue 09:07:00 PM 51.4804 -23.8245 100° East  Level FlightAware Approximate
Tue 09:08:00 PM 51.4556 -23.6067 100° East  Level FlightAware Approximate
Tue 09:09:00 PM 51.4304 -23.3891 100° East  Level FlightAware Approximate
Tue 09:10:00 PM 51.4048 -23.1717 101° East  Level FlightAware Approximate
Tue 09:11:00 PM 51.3788 -22.9547 101° East  Level FlightAware Approximate
Tue 09:12:00 PM 51.3524 -22.7378 101° East  Level FlightAware Approximate
Tue 09:13:00 PM 51.3256 -22.5212 101° East  Level FlightAware Approximate
Tue 09:14:00 PM 51.2994 -22.3046 101° East  Level FlightAware Approximate
Tue 09:15:00 PM 51.2734 -22.0880 101° East  Level FlightAware Approximate
Tue 09:16:00 PM 51.2469 -21.8717 101° East  Level FlightAware Approximate
Tue 09:17:00 PM 51.2201 -21.6556 101° East  Level FlightAware Approximate
Tue 09:18:00 PM 51.1928 -21.4397 101° East  Level FlightAware Approximate
Tue 09:19:00 PM 51.1652 -21.2242 101° East  Level FlightAware Approximate
Tue 09:20:00 PM 51.1371 -21.0089 102° East  Level FlightAware Approximate
Tue 09:21:00 PM 51.1087 -20.7938 102° East  Level FlightAware Approximate
Tue 09:22:00 PM 51.0799 -20.5790 102° East  Level FlightAware Approximate
Tue 09:23:00 PM 51.0506 -20.3645 102° East  Level FlightAware Approximate
Tue 09:24:00 PM 51.0210 -20.1503 102° East  Level FlightAware Approximate
Tue 09:25:00 PM 50.9976 -19.9348 93° East  Level FlightAware Approximate
Tue 09:26:00 PM 50.9894 -19.7161 93° East  Level FlightAware Approximate
Tue 09:27:00 PM 50.9808 -19.4974 93° East  Level FlightAware Approximate
Tue 09:28:00 PM 50.9718 -19.2788 94° East  Level FlightAware Approximate
Tue 09:29:00 PM 50.9623 -19.0603 94° East  Level FlightAware Approximate
Tue 09:30:00 PM 50.9525 -18.8418 94° East  Level FlightAware Approximate
Tue 09:31:00 PM 50.9422 -18.6235 94° East  Level FlightAware Approximate
Tue 09:32:00 PM 50.9316 -18.4053 94° East  Level FlightAware Approximate
Tue 09:33:00 PM 50.9205 -18.1871 95° East  Level FlightAware Approximate
Tue 09:34:00 PM 50.9091 -17.9691 95° East  Level FlightAware Approximate
Tue 09:35:00 PM 50.8972 -17.7512 95° East  Level FlightAware Approximate
Tue 09:36:00 PM 50.8849 -17.5334 95° East  Level FlightAware Approximate
Tue 09:37:00 PM 50.8722 -17.3157 95° East  Level FlightAware Approximate
Tue 09:38:00 PM 50.8591 -17.0981 95° East  Level FlightAware Approximate
Tue 09:39:00 PM 50.8461 -16.8806 95° East  Level FlightAware Approximate
Tue 09:40:00 PM 50.8338 -16.6631 95° East  Level FlightAware Approximate
Tue 09:41:00 PM 50.8210 -16.4456 95° East  Level FlightAware Approximate
Tue 09:42:00 PM 50.8078 -16.2283 95° East  Level FlightAware Approximate
Tue 09:43:00 PM 50.7942 -16.0111 96° East  Level FlightAware Approximate
Tue 09:44:00 PM 50.7802 -15.7941 96° East  Level FlightAware Approximate
Tue 09:45:00 PM 50.7658 -15.5772 96° East  Level FlightAware Approximate
Tue 09:46:00 PM 50.7510 -15.3604 96° East  Level FlightAware Approximate
Tue 09:47:00 PM 50.7358 -15.1437 96° East  Level FlightAware Approximate
Tue 09:48:00 PM 50.7202 -14.9272 96° East  Level FlightAware Approximate
Tue 09:49:00 PM 50.7042 -14.7108 97° East  Level FlightAware Approximate
Tue 09:50:00 PM 50.6878 -14.4946 97° East  Level FlightAware Approximate
Tue 09:51:00 PM 50.6710 -14.2786 97° East  Level FlightAware Approximate
Tue 09:52:00 PM 50.6538 -14.0626 97° East  Level FlightAware Approximate
Tue 09:53:00 PM 50.6362 -13.8469 97° East  Level FlightAware Approximate
Tue 09:54:00 PM 50.6182 -13.6313 97° East  Level FlightAware Approximate
Tue 09:55:00 PM 50.5998 -13.4159 98° East  Level FlightAware Approximate
Tue 09:56:00 PM 50.5811 -13.2006 98° East  Level FlightAware Approximate
Tue 09:57:00 PM 50.5619 -12.9856 98° East  Level FlightAware Approximate
Tue 09:58:00 PM 50.5423 -12.7707 98° East  Level FlightAware Approximate
Tue 09:59:00 PM 50.5223 -12.5560 98° East  Level FlightAware Approximate
Tue 10:00:00 PM 50.5019 -12.3414 98° East  Level FlightAware Approximate
Tue 10:01:00 PM 50.4812 -12.1271 99° East  Level FlightAware Approximate
Tue 10:02:00 PM 50.4600 -11.9129 99° East  Level FlightAware Approximate
Tue 10:03:00 PM 50.4385 -11.6989 99° East  Level FlightAware Approximate
Tue 10:04:00 PM 50.4165 -11.4852 99° East  Level FlightAware Approximate
Tue 10:05:00 PM 50.3942 -11.2716 99° East  Level FlightAware Approximate
Tue 10:05:22 PM 50.4560 -9.7380 99° East 513 590 37,000  Level FlightAware ADS-B
Tue 10:06:00 PM 50.3715 -11.0583 99° East  Level FlightAware Approximate
Tue 10:06:02 PM 50.4380 -9.5920 101° East 517 595 37,000  Level FlightAware ADS-B
Tue 10:06:52 PM 50.4130 -9.3950 101° East 518 596 37,000  Level FlightAware ADS-B
Tue 10:07:47 PM 50.3880 -9.1990 101° East 518 596 37,000 -818 Level FlightAware ADS-B
Tue 10:08:42 PM 50.3595 -8.9847 101° East 490 564 35,500 -1,233 Descending FlightAware UK
Tue 10:09:00 PM 50.3507 -8.9185 102° East 492 566 35,500 3,000 Level FlightAware UK
Tue 10:09:12 PM 50.3470 -8.8790 102° East 521 600 37,000  Climbing FlightAware ADS-B
Tue 10:09:30 PM 50.3379 -8.8074 102° East 494 568 35,500 -2,500 Descending FlightAware UK
Tue 10:09:48 PM 50.3369 -8.7392 91° East 494 568 35,500  Level FlightAware UK
Tue 10:10:06 PM 50.3313 -8.6719 97° East 492 566 35,500 2,647 Level FlightAware UK
Tue 10:10:22 PM 50.3260 -8.6200 99° East 521 600 37,000  Climbing FlightAware ADS-B
Tue 10:10:24 PM 50.3248 -8.6050 99° East 492 566 35,500 -4,500 Descending FlightAware UK
Tue 10:10:42 PM 50.3172 -8.5383 99° East 490 564 35,500  Level FlightAware UK
Tue 10:11:00 PM 50.3089 -8.4722 101° East 490 564 35,500  Level FlightAware UK
Tue 10:11:18 PM 50.3001 -8.4061 102° East 490 564 35,500 2,813 Level FlightAware UK
Tue 10:11:32 PM 50.2940 -8.3630 102° East 518 596 37,000  Climbing FlightAware ADS-B
Tue 10:11:48 PM 50.2854 -8.2957 102° East 492 566 35,500 -2,647 Descending FlightAware UK
Tue 10:12:06 PM 50.2763 -8.2297 102° East 492 566 35,500  Level FlightAware UK
Tue 10:12:24 PM 50.2671 -8.1637 102° East 490 564 35,500  Level FlightAware UK
Tue 10:12:42 PM 50.2577 -8.0971 102° East 490 564 35,500 5,000 Level FlightAware UK
Tue 10:12:42 PM 50.2590 -8.1070 102° East 518 596 37,000  Climbing FlightAware ADS-B
Tue 10:13:00 PM 50.2488 -8.0310 102° East 492 566 35,500 -2,500 Descending FlightAware UK
Tue 10:13:18 PM 50.2404 -7.9649 101° East 490 564 35,500  Level FlightAware UK
Tue 10:13:36 PM 50.2321 -7.8987 101° East 490 564 35,500 2,647 Level FlightAware UK
Tue 10:13:52 PM 50.2260 -7.8480 101° East 519 597 37,000  Climbing FlightAware ADS-B
Tue 10:13:54 PM 50.2237 -7.8326 101° East 490 564 35,500 -4,500 Descending FlightAware UK
Tue 10:14:12 PM 50.2154 -7.7663 101° East 492 566 35,500  Level FlightAware UK
Tue 10:14:30 PM 50.2069 -7.7001 101° East 490 564 35,500  Level FlightAware UK
Tue 10:14:48 PM 50.1982 -7.6341 102° East 490 564 35,500 2,813 Level FlightAware UK
Tue 10:15:02 PM 50.1920 -7.5910 102° East 519 597 37,000  Climbing FlightAware ADS-B
Tue 10:15:18 PM 50.1833 -7.5240 102° East 492 566 35,500 -2,647 Descending FlightAware UK
Tue 10:15:36 PM 50.1742 -7.4580 102° East 490 564 35,500  Level FlightAware UK
Tue 10:15:54 PM 50.1651 -7.3911 102° East 490 564 35,500  Level FlightAware UK
Tue 10:16:12 PM 50.1562 -7.3257 102° East 490 564 35,500  Level FlightAware UK
Tue 10:16:30 PM 50.1471 -7.2595 102° East 490 564 35,500  Level FlightAware UK
Tue 10:16:48 PM 50.1382 -7.1932 102° East 490 564 35,500 4,091 Level FlightAware UK
Tue 10:16:52 PM 50.1380 -7.1940 102° East 522 601 37,000  Climbing FlightAware ADS-B
Tue 10:17:12 PM 50.1259 -7.1041 102° East 490 564 35,500  Descending FlightAware UK
Tue 10:17:27 PM 50.1210 -7.0690 102° East 524 603 37,000  Climbing FlightAware ADS-B
Tue 10:17:30 PM 50.1167 -7.0385 102° East 490 564 35,500 -6,000 Descending FlightAware UK
Tue 10:17:42 PM 50.1106 -6.9944 102° East 492 566 35,500  Level FlightAware UK
Tue 10:18:00 PM 50.1012 -6.9274 102° East 492 566 35,500 2,571 Level FlightAware UK
Tue 10:18:17 PM 50.0960 -6.8870 102° East 525 604 37,000  Climbing FlightAware ADS-B
Tue 10:18:18 PM 50.0919 -6.8612 102° East 494 568 35,500 -4,737 Descending FlightAware UK
Tue 10:18:36 PM 50.0825 -6.7949 102° East 494 568 35,500  Level FlightAware UK
Tue 10:18:54 PM 50.0731 -6.7287 102° East 494 568 35,500  Level FlightAware UK
Tue 10:19:12 PM 50.0639 -6.6624 102° East 492 566 35,500 5,000 Level FlightAware UK
Tue 10:19:12 PM 50.0670 -6.6800 102° East 524 603 37,000  Climbing FlightAware ADS-B
Tue 10:19:30 PM 50.0546 -6.5962 102° East 496 571 35,500 -2,500 Descending FlightAware UK
Tue 10:19:48 PM 50.0451 -6.5294 103° East 494 568 35,500 4,091 Level FlightAware UK
Tue 10:19:52 PM 50.0460 -6.5360 103° East 524 603 37,000  Climbing FlightAware ADS-B
Tue 10:20:12 PM 50.0324 -6.4414 103° East 494 568 35,500 -2,368 Descending FlightAware UK
Tue 10:20:30 PM 50.0226 -6.3747 103° East 494 568 35,500 3,600 Level FlightAware UK
Tue 10:20:37 PM 50.0220 -6.3710 103° East 524 603 37,000  Climbing FlightAware ADS-B
Tue 10:20:54 PM 50.0099 -6.2877 103° East 492 566 35,500 -2,571 Descending FlightAware UK
Tue 10:21:12 PM 50.0002 -6.2218 103° East 492 566 35,500  Level FlightAware UK
Tue 10:21:30 PM 49.9907 -6.1551 102° East 492 566 35,500 4,500 Level FlightAware UK
Tue 10:21:32 PM 49.9930 -6.1710 102° East 524 603 37,000  Climbing FlightAware ADS-B
Tue 10:21:48 PM 49.9810 -6.0900 102° East 492 566 35,500 -2,647 Descending FlightAware UK
Tue 10:22:06 PM 49.9712 -6.0241 103° East 494 568 35,500 3,103 Level FlightAware UK
Tue 10:22:17 PM 49.9680 -6.0040 103° East 524 603 37,000  Climbing FlightAware ADS-B
Tue 10:22:36 PM 49.9548 -5.9137 103° East 496 571 35,500 -2,432 Descending FlightAware UK
Tue 10:22:54 PM 49.9450 -5.8486 103° East 496 571 35,500 4,571 Level FlightAware UK
Tue 10:22:57 PM 49.9470 -5.8600 103° East 523 602 37,100  Climbing FlightAware ADS-B
Tue 10:23:12 PM 49.9351 -5.7821 103° East 492 566 35,500 -2,909 Descending FlightAware UK
Tue 10:23:30 PM 49.9251 -5.7164 103° East 494 568 35,500  Level FlightAware UK
Tue 10:23:48 PM 49.9154 -5.6508 103° East 494 568 35,500  Level FlightAware UK
Tue 10:24:07 PM 49.9054 -5.5846 103° East 494 568 35,500 4,737 Level FlightAware UK
Tue 10:24:07 PM 49.9080 -5.6050 103° East 521 600 37,000  Climbing FlightAware ADS-B
Tue 10:24:24 PM 49.8954 -5.5199 103° East 492 566 35,500 -2,571 Descending FlightAware UK
Tue 10:24:42 PM 49.8852 -5.4546 104° East 492 566 35,500 5,000 Level FlightAware UK
Tue 10:24:42 PM 49.8880 -5.4750 104° East 521 600 37,000  Climbing FlightAware ADS-B
Tue 10:25:00 PM 49.8750 -5.3893 104° East 492 566 35,500 -2,432 Descending FlightAware UK
Tue 10:25:19 PM 49.8648 -5.3231 103° East 494 568 35,500 3,000 Level FlightAware UK
Tue 10:25:32 PM 49.8600 -5.2940 103° East 521 600 37,100  Climbing FlightAware ADS-B
Tue 10:25:48 PM 49.8480 -5.2148 103° East 494 568 35,500 -2,743 Descending FlightAware UK
Tue 10:26:07 PM 49.8378 -5.1486 103° East 494 568 35,500  Level FlightAware UK
Tue 10:26:24 PM 49.8278 -5.0840 104° East 494 568 35,500 4,500 Level FlightAware UK
Tue 10:26:27 PM 49.8300 -5.0960 104° East 520 598 37,000  Climbing FlightAware ADS-B
Tue 10:26:42 PM 49.8174 -5.0188 104° East 494 568 35,500 -2,727 Descending FlightAware UK
Tue 10:27:00 PM 49.8071 -4.9537 104° East 492 566 35,500 3,600 Level FlightAware UK
Tue 10:27:07 PM 49.8060 -4.9490 104° East 519 597 37,000  Climbing FlightAware ADS-B
Tue 10:27:24 PM 49.7934 -4.8678 104° East 494 568 35,500 -2,571 Descending FlightAware UK
Tue 10:27:42 PM 49.7831 -4.8029 104° East 494 568 35,500 3,214 Level FlightAware UK
Tue 10:27:52 PM 49.7810 -4.7890 104° East 518 596 37,000  Climbing FlightAware ADS-B
Tue 10:28:13 PM 49.7655 -4.6934 104° East 494 568 35,500 -2,368 Descending FlightAware UK
Tue 10:28:30 PM 49.7567 -4.6288 102° East 492 566 35,500 2,647 Level FlightAware UK
Tue 10:28:47 PM 49.7540 -4.5890 97° East 521 600 37,000  Climbing FlightAware ADS-B
Tue 10:28:49 PM 49.7514 -4.5613 97° East 492 566 35,500 -4,500 Descending FlightAware UK
Tue 10:29:07 PM 49.7456 -4.4949 97° East 492 566 35,500  Level FlightAware UK
Tue 10:29:25 PM 49.7403 -4.4282 97° East 494 568 35,500 3,600 Level FlightAware UK
Tue 10:29:32 PM 49.7400 -4.4230 97° East 522 601 37,000  Climbing FlightAware ADS-B
Tue 10:29:49 PM 49.7336 -4.3386 97° East 492 566 35,500 -2,571 Descending FlightAware UK
Tue 10:30:07 PM 49.7286 -4.2711 96° East 490 564 35,500 3,913 Level FlightAware UK
Tue 10:30:12 PM 49.7290 -4.2780 96° East 523 602 37,000  Climbing FlightAware ADS-B
Tue 10:30:31 PM 49.7219 -4.1814 96° East 490 564 35,500 -2,432 Descending FlightAware UK
Tue 10:30:49 PM 49.7172 -4.1145 96° East 490 564 35,500  Level FlightAware UK
Tue 10:31:07 PM 49.7122 -4.0475 97° East 490 564 35,500 2,727 Level FlightAware UK
Tue 10:31:22 PM 49.7100 -4.0140 97° East 525 604 37,000  Climbing FlightAware ADS-B
Tue 10:31:37 PM 49.7039 -3.9375 97° East 494 568 35,500 -2,727 Descending FlightAware UK
Tue 10:31:55 PM 49.6988 -3.8698 97° East 492 566 35,500  Level FlightAware UK
Tue 10:32:13 PM 49.6936 -3.8029 97° East 492 566 35,500  Level FlightAware UK
Tue 10:32:31 PM 49.6884 -3.7353 97° East 492 566 35,500 4,737 Level FlightAware UK
Tue 10:32:32 PM 49.6900 -3.7550 97° East 524 603 37,000  Climbing FlightAware ADS-B
Tue 10:32:49 PM 49.6832 -3.6683 97° East 492 566 35,500 -2,571 Descending FlightAware UK
Tue 10:33:07 PM 49.6781 -3.6007 97° East 494 568 35,500 3,214 Level FlightAware UK
Tue 10:33:17 PM 49.6760 -3.5710 97° East 524 603 37,000  Climbing FlightAware ADS-B
Tue 10:33:37 PM 49.6693 -3.4902 97° East 492 566 35,500 -2,368 Descending FlightAware UK
Tue 10:33:55 PM 49.6639 -3.4228 97° East 492 566 35,500 4,500 Level FlightAware UK
Tue 10:33:57 PM 49.6640 -3.4240 97° East 524 603 37,000  Climbing FlightAware ADS-B
Tue 10:34:14 PM 49.6584 -3.3546 97° East 492 566 35,500 -2,647 Descending FlightAware UK
Tue 10:34:31 PM 49.6531 -3.2894 97° East 492 566 35,500 3,913 Level FlightAware UK
Tue 10:34:37 PM 49.6520 -3.2720 97° East 525 604 37,000  Climbing FlightAware ADS-B
Tue 10:34:55 PM 49.6457 -3.2006 97° East 490 564 35,500 -2,500 Descending FlightAware UK
Tue 10:35:13 PM 49.6402 -3.1340 97° East 490 564 35,500 3,333 Level FlightAware UK
Tue 10:35:22 PM 49.6390 -3.1130 97° East 525 604 37,000  Climbing FlightAware ADS-B
Tue 10:35:38 PM 49.6329 -3.0443 97° East 490 564 35,500  Descending FlightAware UK
Tue 10:35:50 PM 49.6290 -2.9995 97° East 525 604 37,000  Climbing FlightAware ADS-B
Tue 10:36:08 PM 49.6233 -2.9317 97° East 490 564 35,500 -2,500 Descending FlightAware UK
Tue 10:36:26 PM 49.6177 -2.8657 97° East 490 564 35,500 4,737 Level FlightAware UK
Tue 10:36:27 PM 49.6175 -2.8622 97° East 526 605 37,000  Climbing FlightAware ADS-B
Tue 10:36:44 PM 49.6119 -2.7981 97° East 490 564 35,500  Descending FlightAware UK
Tue 10:36:57 PM 49.6078 -2.7497 97° East 528 608 37,000  Climbing FlightAware ADS-B
Tue 10:37:14 PM 49.6023 -2.6875 97° East 492 566 35,500  Descending FlightAware UK
Tue 10:37:14 PM 49.6026 -2.6884 97° East 528 608 37,000  Climbing FlightAware ADS-B
Tue 10:37:32 PM 49.5965 -2.6199 97° East 492 566 35,500 207 Descending FlightAware UK
Tue 10:37:43 PM 49.5932 -2.5816 97° East 527 606 37,100 4,500 Climbing FlightAware ADS-B
Tue 10:37:52 PM 49.5902 -2.5467 98° East 527 606 37,000 -3,840 Descending FlightAware ADS-B
Tue 10:38:08 PM 49.5846 -2.4849 98° East 490 564 35,500  Descending FlightAware UK
Tue 10:38:20 PM 49.5811 -2.4436 98° East 527 606 37,000 3,750 Climbing FlightAware ADS-B
Tue 10:38:32 PM 49.5770 -2.3976 98° East 527 606 37,000 -3,000 Level FlightAware ADS-B
Tue 10:38:50 PM 49.5706 -2.3293 98° East 492 566 35,500  Descending FlightAware UK
Tue 10:38:58 PM 49.5683 -2.3006 98° East 527 606 37,000 6,923 Climbing FlightAware ADS-B
Tue 10:39:03 PM 49.5666 -2.2825 98° East 527 606 37,000 -3,913 Level FlightAware ADS-B
Tue 10:39:21 PM 49.5606 -2.2177 98° East 488 562 35,500  Descending FlightAware UK
Tue 10:39:28 PM 49.5583 -2.1895 98° East 527 606 37,000 6,429 Climbing FlightAware ADS-B
Tue 10:39:35 PM 49.5561 -2.1654 98° East 527 606 37,000 -3,913 Level FlightAware ADS-B
Tue 10:39:51 PM 49.5504 -2.1058 98° East 490 564 35,500  Descending FlightAware UK
Tue 10:39:58 PM 49.5480 -2.0776 98° East 527 606 37,000 5,625 Climbing FlightAware ADS-B
Tue 10:40:07 PM 49.5452 -2.0473 98° East 527 606 37,000 -3,103 Level FlightAware ADS-B
Tue 10:40:27 PM 49.5383 -1.9724 98° East 490 564 35,500  Descending FlightAware UK
Tue 10:40:29 PM 49.5375 -1.9643 98° East 527 606 37,000  Climbing FlightAware ADS-B
Tue 10:40:45 PM 49.5319 -1.9050 98° East 490 564 35,500  Descending FlightAware UK
Tue 10:40:48 PM 49.5309 -1.8933 98° East 527 606 37,000 6,429 Climbing FlightAware ADS-B
Tue 10:40:59 PM 49.5271 -1.8534 98° East 527 606 37,000 -3,333 Level FlightAware ADS-B
Tue 10:41:15 PM 49.5215 -1.7946 98° East 492 566 35,500  Descending FlightAware UK
Tue 10:41:25 PM 49.5182 -1.7592 98° East 526 605 37,000 6,429 Climbing FlightAware ADS-B
Tue 10:41:29 PM 49.5165 -1.7410 98° East 527 606 37,000 -4,500 Level FlightAware ADS-B
Tue 10:41:45 PM 49.5109 -1.6843 98° East 494 568 35,500  Descending FlightAware UK
Tue 10:41:56 PM 49.5070 -1.6416 98° East 525 604 37,000 6,400 Climbing FlightAware ADS-B
Tue 10:42:00 PM 49.5058 -1.6294 99° East 525 604 37,100 -4,737 Climbing FlightAware ADS-B
Tue 10:42:15 PM 49.5002 -1.5724 99° East 484 557 35,500  Descending FlightAware UK
Tue 10:42:28 PM 49.4957 -1.5243 99° East 524 603 37,100 5,625 Climbing FlightAware ADS-B
Tue 10:42:31 PM 49.4946 -1.5137 99° East 524 603 37,000 -4,174 Descending FlightAware ADS-B
Tue 10:42:51 PM 49.4874 -1.4408 99° East 486 559 35,500  Descending FlightAware UK
Tue 10:42:59 PM 49.4847 -1.4117 99° East 525 604 37,000 9,000 Climbing FlightAware ADS-B
Tue 10:43:01 PM 49.4838 -1.4021 98° East 526 605 37,000 -4,091 Level FlightAware ADS-B
Tue 10:43:21 PM 49.4764 -1.3299 98° East 490 564 35,500  Descending FlightAware UK
Tue 10:43:36 PM 49.4711 -1.2740 98° East 526 605 37,000 6,000 Climbing FlightAware ADS-B
Tue 10:43:37 PM 49.4707 -1.2703 99° East 526 605 37,100 -4,286 Climbing FlightAware ADS-B
Tue 10:43:57 PM 49.4635 -1.1988 99° East 490 564 35,500 -176 Descending FlightAware UK
Tue 10:44:11 PM 49.4584 -1.1468 99° East 527 606 37,000 5,294 Climbing FlightAware ADS-B
Tue 10:44:14 PM 49.4573 -1.1362 99° East 527 606 37,000 -5,182 Level FlightAware ADS-B
Tue 10:44:33 PM 49.4501 -1.0653 99° East 490 564 35,100 -1,714 Descending FlightAware UK
Tue 10:44:42 PM 49.4465 -1.0300 99° East 535 616 36,200 2,000 Climbing FlightAware ADS-B
Tue 10:44:54 PM 49.4421 -0.9864 99° East 532 612 35,800 -2,323 Descending FlightAware ADS-B
Tue 10:45:13 PM 49.4350 -0.9163 99° East 528 608 35,000 -4,769 Descending FlightAware ADS-B
Tue 10:45:33 PM 49.4272 -0.8428 99° East 480 552 32,700 -2,250 Descending FlightAware UK
Tue 10:45:37 PM 49.4258 -0.8278 99° East 523 602 34,100 7,200 Climbing FlightAware ADS-B
Tue 10:45:43 PM 49.4235 -0.8053 99° East 521 600 33,900 -5,769 Descending FlightAware ADS-B
Tue 10:46:03 PM 49.4159 -0.7343 99° East 472 543 31,600 -2,200 Descending FlightAware UK
Tue 10:46:13 PM 49.4122 -0.6969 99° East 512 589 32,800 -2,400 Climbing FlightAware ADS-B
Tue 10:46:33 PM 49.4048 -0.6259 99° East 476 548 30,400 -1,765 Descending FlightAware UK
Tue 10:46:47 PM 49.4017 -0.5784 99° East 507 583 31,800 -1,000 Climbing FlightAware ADS-B
Tue 10:47:03 PM 49.3976 -0.5199 99° East 474 545 29,900 -1,200 Descending FlightAware UK
Tue 10:47:17 PM 49.3952 -0.4718 99° East 499 574 31,200 -1,200 Climbing FlightAware ADS-B
Tue 10:47:33 PM 49.3918 -0.4128 99° East 464 534 29,300 -1,548 Descending FlightAware UK
Tue 10:47:48 PM 49.3900 -0.3614 99° East 488 562 30,400 -1,400 Climbing FlightAware ADS-B
Tue 10:48:03 PM 49.3876 -0.3103 99° East 452 520 28,600 -1,161 Descending FlightAware UK
Tue 10:48:19 PM 49.3860 -0.2583 99° East 478 550 29,800 -1,500 Climbing FlightAware ADS-B
Tue 10:48:39 PM 49.3831 -0.1900 99° East 442 509 27,700 -1,548 Descending FlightAware UK
Tue 10:48:50 PM 49.3821 -0.1547 99° East 469 540 29,000 -1,600 Climbing FlightAware ADS-B
Tue 10:49:09 PM 49.3794 -0.0898 99° East 436 502 26,900 -1,742 Descending FlightAware UK
Tue 10:49:21 PM 49.3782 -0.0536 99° East 465 535 28,100 -1,800 Climbing FlightAware ADS-B
Tue 10:49:39 PM 49.3758 0.0086 99° East 428 493 26,000 -1,935 Descending FlightAware UK
Tue 10:49:52 PM 49.3743 0.0500 99° East 460 529 27,100 -1,935 Climbing FlightAware ADS-B
Tue 10:50:10 PM 49.3720 0.1072 99° East 422 486 25,000 -1,935 Descending FlightAware UK
Tue 10:50:23 PM 49.3705 0.1478 99° East 457 526 26,100 -2,000 Climbing FlightAware ADS-B
Tue 10:50:40 PM 49.3680 0.2044 99° East 418 481 24,000 -1,600 Descending FlightAware UK
Tue 10:50:53 PM 49.3664 0.2460 99° East 452 520 25,300 -1,241 Climbing FlightAware ADS-B
Tue 10:51:09 PM 49.3640 0.2985 99° East 416 479 23,400 -1,548 Descending FlightAware UK
Tue 10:51:24 PM 49.3624 0.3421 99° East 445 512 24,500 -1,742 Climbing FlightAware ADS-B
Tue 10:51:40 PM 49.3600 0.3931 99° East 414 476 22,500 -1,600 Descending FlightAware UK
Tue 10:51:54 PM 49.3581 0.4363 99° East 437 503 23,700 -1,400 Climbing FlightAware ADS-B
Tue 10:52:10 PM 49.3558 0.4854 99° East 408 470 21,800 -1,400 Descending FlightAware UK
Tue 10:52:24 PM 49.3541 0.5288 99° East 429 494 23,000 -1,600 Climbing FlightAware ADS-B
Tue 10:52:40 PM 49.3518 0.5769 99° East 400 460 21,000 -1,800 Descending FlightAware UK
Tue 10:52:54 PM 49.3499 0.6196 99° East 423 487 22,100 -1,800 Climbing FlightAware ADS-B
Tue 10:53:10 PM 49.3475 0.6671 99° East 394 453 20,100 -4,235 Descending FlightAware UK
Tue 10:53:28 PM 49.3450 0.7193 94° East 390 449 19,700 2,727 Descending FlightAware UK
Tue 10:53:32 PM 49.3450 0.7250 94° East 416 479 21,100 4,714 Climbing FlightAware ADS-B
Tue 10:53:42 PM 49.3433 0.7606 94° East 414 476 20,800 -5,308 Descending FlightAware ADS-B
Tue 10:53:58 PM 49.3410 0.8076 94° East 388 447 18,800 -1,548 Descending FlightAware UK
Tue 10:54:13 PM 49.3391 0.8493 94° East 410 472 20,000 -1,500 Climbing FlightAware ADS-B
Tue 10:54:34 PM 49.3360 0.9105 94° East 384 442 17,900 -1,600 Descending FlightAware UK
Tue 10:54:43 PM 49.3349 0.9355 94° East 406 467 19,200 -1,750 Climbing FlightAware ADS-B
Tue 10:54:58 PM 49.3327 0.9799 94° East 382 440 17,200 -1,600 Descending FlightAware UK
Tue 10:55:13 PM 49.3306 1.0212 94° East 400 460 18,400 -1,500 Climbing FlightAware ADS-B
Tue 10:55:34 PM 49.3276 1.0809 94° East 374 430 16,300 -1,600 Descending FlightAware UK
Tue 10:55:43 PM 49.3263 1.1062 94° East 395 455 17,600 -1,500 Climbing FlightAware ADS-B
Tue 10:55:58 PM 49.3242 1.1469 94° East 372 428 15,700 -4,182 Descending FlightAware UK
Tue 10:56:16 PM 49.3217 1.1970 94° East 370 426 15,300 3,667 Descending FlightAware UK
Tue 10:56:16 PM 49.3217 1.1979 94° East 390 449 16,800 -1,667 Climbing FlightAware ADS-B
Tue 10:56:34 PM 49.3191 1.2464 94° East 368 423 14,800 -1,500 Descending FlightAware UK
Tue 10:56:44 PM 49.3180 1.2725 94° East 384 442 16,100 -1,400 Climbing FlightAware ADS-B
Tue 10:57:04 PM 49.3149 1.3280 94° East 368 423 14,100 -1,200 Descending FlightAware UK
Tue 10:57:14 PM 49.3138 1.3533 94° East 376 433 15,500 -1,200 Climbing FlightAware ADS-B
Tue 10:57:34 PM 49.3110 1.4077 94° East 362 417 13,500 -1,400 Descending FlightAware UK
Tue 10:57:44 PM 49.3097 1.4320 94° East 369 425 14,800 -1,600 Climbing FlightAware ADS-B
Tue 10:58:04 PM 49.3069 1.4848 94° East 354 407 12,700 -1,500 Descending FlightAware UK
Tue 10:58:16 PM 49.3052 1.5151 94° East 367 422 14,000 -1,400 Climbing FlightAware ADS-B
Tue 10:58:34 PM 49.3026 1.5622 94° East 346 398 12,000 -1,400 Descending FlightAware UK
Tue 10:58:46 PM 49.3011 1.5917 94° East 362 417 13,300 -1,400 Climbing FlightAware ADS-B
Tue 10:59:04 PM 49.2983 1.6377 94° East 352 405 11,300 -1,355 Descending FlightAware UK
Tue 10:59:17 PM 49.2967 1.6706 94° East 354 407 12,600 -1,241 Climbing FlightAware ADS-B
Tue 10:59:33 PM 49.2941 1.7120 94° East 344 396 10,700 -1,161 Descending FlightAware UK
Tue 10:59:48 PM 49.2924 1.7460 94° East 349 402 12,000 -1,355 Climbing FlightAware ADS-B
Tue 11:00:04 PM 49.2901 1.7859 94° East 336 387 10,000 -1,600 Descending FlightAware UK
Tue 11:00:18 PM 49.2887 1.8199 94° East 347 399 11,200 -1,200 Climbing FlightAware ADS-B
Tue 11:00:34 PM 49.2867 1.8600 94° East 338 389 9,400 -400 Descending FlightAware UK
Tue 11:00:48 PM 49.2857 1.8927 94° East 344 396 11,000  Climbing FlightAware ADS-B
Tue 11:01:04 PM 49.2837 1.9331 94° East 336 387 9,400  Descending FlightAware UK
Tue 11:01:19 PM 49.2823 1.9673 94° East 346 398 11,000 200 Climbing FlightAware ADS-B
Tue 11:01:34 PM 49.2801 2.0056 94° East 334 384 9,500  Descending FlightAware UK
Tue 11:01:49 PM 49.2789 2.0407 94° East 346 398 11,000  Climbing FlightAware ADS-B
Tue 11:02:04 PM 49.2772 2.0788 94° East 334 384 9,500  Descending FlightAware UK
Tue 11:02:20 PM 49.2754 2.1155 94° East 346 398 11,000  Climbing FlightAware ADS-B
Tue 11:02:40 PM 49.2731 2.1662 94° East 336 387 9,500 -200 Descending FlightAware UK
Tue 11:02:50 PM 49.2718 2.1888 94° East 345 397 10,900 1,500 Climbing FlightAware ADS-B
Tue 11:03:20 PM 49.2681 2.2617 94° East 341 392 10,500 -931 Descending FlightAware ADS-B
Tue 11:03:48 PM 49.2649 2.3278 94° East 328 377 10,000 -837 Descending FlightAware ADS-B
Tue 11:04:03 PM 49.2632 2.3621 94° East 318 366 9,900 -400 Descending FlightAware ADS-B
Tue 11:04:18 PM 49.2614 2.3965 95° East 307 353 9,800 -581 Descending FlightAware ADS-B
Tue 11:04:34 PM 49.2598 2.4286 94° East 298 343 9,600 -938 Descending FlightAware ADS-B
Tue 11:04:50 PM 49.2580 2.4633 95° East 294 338 9,300 -1,200 Descending FlightAware ADS-B
Tue 11:05:09 PM 49.2559 2.5021 95° East 290 334 8,900 -1,333 Descending FlightAware ADS-B
Tue 11:05:17 PM 49.2547 2.5173 97° East 289 333 8,700 -1,200 Descending FlightAware ADS-B
Tue 11:05:29 PM 49.2523 2.5416 99° East 287 330 8,500 -1,333 Descending FlightAware ADS-B
Tue 11:05:44 PM 49.2487 2.5718 100° East 287 330 8,100 -1,313 Descending FlightAware ADS-B
Tue 11:06:01 PM 49.2448 2.6057 100° East 288 331 7,800 -1,091 Descending FlightAware ADS-B
Tue 11:06:06 PM 49.2432 2.6163 103° East 287 330 7,700 -1,333 Descending FlightAware ADS-B
Tue 11:06:10 PM 49.2418 2.6240 105° East 286 329 7,600 -1,333 Descending FlightAware ADS-B
Tue 11:06:15 PM 49.2398 2.6326 110° East 285 328 7,500 -1,091 Descending FlightAware ADS-B
Tue 11:06:32 PM 49.2309 2.6647 113° Southeast 283 326 7,200 -1,125 Descending FlightAware ADS-B
Tue 11:06:47 PM 49.2230 2.6925 113° Southeast 282 325 6,900 -1,200 Descending FlightAware ADS-B
Tue 11:07:02 PM 49.2149 2.7196 115° Southeast 280 322 6,600 -1,149 Descending FlightAware ADS-B
Tue 11:07:34 PM 49.1977 2.7768 115° Southeast 279 321 6,000 -1,149 Descending FlightAware ADS-B
Tue 11:07:49 PM 49.1896 2.8035 115° Southeast 277 319 5,700 -1,161 Descending FlightAware ADS-B
Tue 11:08:05 PM 49.1810 2.8312 115° Southeast 276 318 5,400 -900 Descending FlightAware ADS-B
Tue 11:08:09 PM 49.1789 2.8376 117° Southeast 275 316 5,400 -750 Level FlightAware ADS-B
Tue 11:08:13 PM 49.1761 2.8441 123° Southeast 274 315 5,300 -1,714 Descending FlightAware ADS-B
Tue 11:08:16 PM 49.1737 2.8488 128° Southeast 272 313 5,200 -1,000 Descending FlightAware ADS-B
Tue 11:08:19 PM 49.1707 2.8534 135° Southeast 270 311 5,200 -1,000 Level FlightAware ADS-B
Tue 11:08:22 PM 49.1678 2.8575 138° Southeast 267 307 5,100 -667 Descending FlightAware ADS-B
Tue 11:08:28 PM 49.1620 2.8642 143° Southeast 263 303 5,100 -273 Level FlightAware ADS-B
Tue 11:08:44 PM 49.1469 2.8802 145° Southeast 255 293 5,000 -400 Descending FlightAware ADS-B
Tue 11:08:58 PM 49.1339 2.8942 145° Southeast 247 284 4,900 -480 Descending FlightAware ADS-B
Tue 11:09:09 PM 49.1237 2.9052 145° Southeast 242 278 4,800 -462 Descending FlightAware ADS-B
Tue 11:09:24 PM 49.1100 2.9202 144° Southeast 237 273 4,700 -667 Descending FlightAware ADS-B
Tue 11:09:36 PM 49.0989 2.9322 145° Southeast 235 270 4,500 -1,125 Descending FlightAware ADS-B
Tue 11:09:40 PM 49.0953 2.9356 148° Southeast 233 268 4,400 -750 Descending FlightAware ADS-B
Tue 11:09:44 PM 49.0914 2.9383 155° Southeast 232 267 4,400 -667 Level FlightAware ADS-B
Tue 11:09:49 PM 49.0872 2.9404 162° South 231 266 4,300 -1,500 Descending FlightAware ADS-B
Tue 11:09:52 PM 49.0839 2.9415 169° South 231 266 4,200 -857 Descending FlightAware ADS-B
Tue 11:09:56 PM 49.0796 2.9424 172° South 230 265 4,200 -316 Level FlightAware ADS-B
Tue 11:10:11 PM 49.0636 2.9445 175° South 227 261 4,100 -400 Descending FlightAware ADS-B
Tue 11:10:26 PM 49.0478 2.9465 175° South 225 259 4,000 -316 Descending FlightAware ADS-B
Tue 11:10:30 PM 49.0444 2.9468 177° South 224 258 4,000  Level FlightAware ADS-B
Tue 11:10:33 PM 49.0404 2.9468 180° South 224 258 4,000  Level FlightAware ADS-B
Tue 11:10:37 PM 49.0369 2.9462 186° South 223 257 4,000  Level FlightAware ADS-B
Tue 11:10:40 PM 49.0333 2.9449 194° South 222 255 4,000  Level FlightAware ADS-B
Tue 11:10:44 PM 49.0304 2.9431 202° Southwest 222 255 4,000  Level FlightAware ADS-B
Tue 11:10:47 PM 49.0269 2.9402 209° Southwest 221 254 4,000  Level FlightAware ADS-B
Tue 11:10:51 PM 49.0239 2.9367 217° Southwest 221 254 4,000  Level FlightAware ADS-B
Tue 11:10:55 PM 49.0210 2.9320 227° Southwest 221 254 4,000 750 Level FlightAware ADS-B
Tue 11:10:59 PM 49.0187 2.9267 237° Southwest 221 254 4,100 750 Climbing FlightAware ADS-B
Tue 11:11:03 PM 49.0173 2.9216 247° West 222 255 4,100  Level FlightAware ADS-B
Tue 11:11:07 PM 49.0164 2.9162 256° West 220 253 4,100  Level FlightAware ADS-B
Tue 11:11:14 PM 49.0153 2.9055 261° West 212 244 4,100  Level FlightAware ADS-B
Tue 11:11:20 PM 49.0144 2.8959 262° West 203 234 4,100 -462 Level FlightAware ADS-B
Tue 11:11:27 PM 49.0136 2.8864 263° West 198 228 4,000 -750 Descending FlightAware ADS-B
Tue 11:11:36 PM 49.0128 2.8743 264° West 194 223 3,900 -1,000 Descending FlightAware ADS-B
Tue 11:11:51 PM 49.0115 2.8543 264° West 190 219 3,600 -1,000 Descending FlightAware ADS-B
Tue 11:12:00 PM 49.0110 2.8420 266° West 186 214 3,500 -1,000 Descending FlightAware ADS-B
Tue 11:12:15 PM 49.0101 2.8226 266° West 183 211 3,200 -923 Descending FlightAware ADS-B
Tue 11:12:26 PM 49.0094 2.8092 265° West 183 211 3,100 -889 Descending FlightAware ADS-B
Tue 11:12:42 PM 49.0082 2.7882 265° West 184 212 2,800 -1,071 Descending FlightAware ADS-B
Tue 11:12:54 PM 49.0074 2.7729 265° West 185 213 2,600 -900 Descending FlightAware ADS-B
Tue 11:13:02 PM 49.0068 2.7621 265° West 186 214 2,500 -1,059 Descending FlightAware ADS-B
Tue 11:13:11 PM 49.0062 2.7512 265° West 186 214 2,300 -1,000 Descending FlightAware ADS-B
Tue 11:13:26 PM 49.0053 2.7320 266° West 178 205 2,100 -800 Descending FlightAware ADS-B
Tue 11:13:41 PM 49.0043 2.7136 265° West 172 198 1,900 -923 Descending FlightAware ADS-B
Tue 11:14:05 PM 49.0028 2.6861 265° West 168 193 1,500 -947 Descending FlightAware ADS-B
Tue 11:14:19 PM 49.0021 2.6714 266° West 140 161 1,300 -857 Descending FlightAware ADS-B
Tue 11:14:26 PM 49.0018 2.6654 266° West 139 160 1,200 -400 Descending FlightAware ADS-B
Tue 11:14:34 PM 49.0013 2.6567 265° West 139 160 1,200 -353 Level FlightAware ADS-B
Tue 11:14:43 PM 49.0008 2.6487 265° West 141 162 1,100 -818 Descending FlightAware ADS-B
Tue 11:14:56 PM 49.0000 2.6353 265° West 144 166 900 -889 Descending FlightAware ADS-B
Tue 11:15:10 PM 48.9993 2.6207 266° West 150 173 700 -774 Descending FlightAware ADS-B
Tue 11:15:27 PM 48.9984 2.6033 265° West 154 177 500 -706 Descending FlightAware ADS-B
Tue 11:24:00 PM 49.0128 2.5500 102° East  Level Estimated
Tue 11:25:00 PM 49.0128 2.5500 102° East  Level Estimated
Tue 11:26:00 PM 49.0128 2.5500 102° East  Level Estimated
Tue 11:27:00 PM 49.0128 2.5500 102° East  Level Estimated
Tue 11:28:00 PM 49.0128 2.5500 102° East  Level Estimated
Tue 11:29:00 PM 49.0128 2.5500 102° East  Level Estimated
Tue 11:30:00 PM 49.0128 2.5500 102° East  Level Estimated
Tue 11:31:00 PM 49.0128 2.5500 102° East  Level Estimated
Tue 11:32:00 PM 49.0128 2.5500 102° East  Level Estimated

Login

Don't have an account? Register now (free) for customized features, flight alerts, and more!